Погода в Хвойном

Россия / Санкт-Петербург и Ленинградская область     60°57′38″N   29°48′31″E
темп.,
°C
ветер,
м/с
пор.,
м/с
влажн.,
%
обл.,
%
осадки,
мм/ч
давл.,
гПа
погр.,
м
8 мая, сб
сб800:00+1ююз119496 0.0 100420
03:00+2ююв1194100 0.0 100412
06:00+3ссв1191100 0.0 100462
09:00+4с2591100 0.1 1003240
12:00+5с2588100 0.7 1003578
15:00+6зсз3675100 1.1 1004909
18:00+6сз3676100 0.1 1005911
21:00+4з2280100 0.2 100725
9 мая, вс
вс900:00+1зюз25876 0.0 100991
03:00+1з28865 0.0 1010165
06:00+1з39830 0.0 1011244
09:00+7зсз36563 0.0 1013641
12:00+10з46355 0.0 10141932
15:00+11юз673521 0.0 10161866
18:00+10юз41044100 0.0 10161619
21:00+6ююз286730 0.0 1017173
10 мая, пн
пн1000:00+4ююз2676100 0.0 1017139
03:00+5ю2680100 0.0 1017125
06:00+5ююв3878100 0.1 1017748
09:00+6ююв41195100 1.8 1016602
12:00+9юз41291100 0.3 1017685
15:00+14юз51077100 0.4 1018818
18:00+11ю21192100 0.0 1019358
21:00+13ююз3118272 0.0 1019375
11 мая, вт
вт1100:00+10ююз3119298 0.0 1020261
03:00+12юз41386100 0.0 1020495
06:00+12ююз41288100 0.0 1021482
09:00+16ююз510695 0.0 1022671
12:00+19ююз5948100 0.0 10221231
15:00+21ююз594144 0.0 10211583
18:00+21юз49465 0.0 10211417
21:00+15ю23705 0.0 102258
12 мая, ср
ср1200:00+13ю3128011 0.0 1023302
03:00+12ююз312820 0.0 1023326
06:00+12ю311810 0.0 1024337
09:00+17ююз475812 0.0 1024637
12:00+21ююз4643100 0.0 10241317
15:00+23ююз453937 0.0 10231579
18:00+23ю34419 0.0 10231496
21:00+17ю22650 0.0 102430